Notices

What's New in latest release on October 27, 2021:

- Updated email addresses on the CDO Contacts page.

- Updated station operator of Churchill Falls (Climate ID: 8501130).

- Radar site name change from Jimmy Lake to Cold Lake on October 27, 2021.

Hourly Data Report for December 20, 2020

FORT GOOD HOPE CS
NORTHWEST TERRITORIES
Current Station Operator: ECCC - MSC

66°14'32.044" N
128°38'39.081" W
81.70 m
2201450
71491
ZGH

Download Data

Hourly Data (December 2020)
Hourly Data Report for December 20, 2020
TIME
LST
Temp Definition
°C
Dew Point Definition
°C
Rel Hum Definition
%
Precip. Amount Definition
mm

Wind Dir Definition
10's deg

Wind Spd Definition
km/h
Visibility Definition
km
Stn Press Definition
kPa
Hmdx Definition


Wind Chill Definition


Weather Definition


00:00 -45.3 -49.6 62 0.0   0   99.52     LegendNANA
01:00 -45.8 -50.1 62 0.0 8 1   99.51   -47 LegendNANA
02:00 -45.5 -49.8 62 0.0   0   99.54     LegendNANA
03:00 -45.3 -49.6 62 0.0   0   99.56     LegendNANA
04:00 -45.4 -49.7 62 0.0   0   99.56     LegendNANA
05:00 -45.5 -49.8 62 0.0   0   99.58     LegendNANA
06:00 -45.2 -49.5 62 0.0 17 2   99.55   -48 LegendNANA
07:00 -43.3 -47.5 63 0.0 21 1   99.53   -45 LegendNANA
08:00 -42.1 -46.3 64 0.0 27 6   99.57   -50 LegendNANA
09:00 -41.2 -45.3 64 0.0 25 2   99.54   -44 LegendNANA
10:00 -40.1 -44.1 65 0.0 20 3   99.55   -44 LegendNANA
11:00 -39.5 -43.5 66 0.0 32 2   99.56   -42 LegendNANA
12:00 -38.6 -42.5 66 0.0 28 3   99.59   -43 LegendNANA
13:00 -38.2 -42.2 66 0.0 27 4   99.63   -44 LegendNANA
14:00 -37.6 -41.5 67 0.0 26 3   99.64   -42 LegendNANA
15:00 -37.9 -41.9 67 0.0 27 4   99.66   -43 LegendNANA
16:00 -37.6 -41.6 67 0.0 24 5   99.73   -44 LegendNANA
17:00 -37.9 -41.8 67 0.0 21 6   99.76   -46 LegendNANA
18:00 -37.7 -41.6 67 0.0 21 5   99.79   -44 LegendNANA
19:00 -37.0 -40.8 67 0.0 24 5   99.83   -44 LegendNANA
20:00 -36.2 -40.1 68 0.0 24 5   99.84   -43 LegendNANA
21:00 -35.6 -39.4 68 0.0 26 4   99.87   -41 LegendNANA
22:00 -35.0 -38.8 69 0.0 25 5   99.91   -41 LegendNANA
23:00 -35.2 -38.9 69 0.0 28 4   99.97   -40 LegendNANA

Notes on Data Quality.

Legend

  • E = Estimated
  • M = Missing
  • NA = Not Available*
  • [empty] = Indicates an unobserved value
Date modified: